Starlink 32702

operational
NORAD ID: 62432 Int'l Des: 2024-251 Owner: SPXS Country: US Constellation: starlink
LEOCIRCULAR

Starlink 32702について

説明を読み込み中...

リアルタイム位置

3D地球を読み込み中...

次回通過

高度履歴

Altitude vs Time

uPlot chart will show altitude changes over time

軌道要素

1 62432U 24251A 25351.42534950 .00050512 00000-0 17060-2 0 9998
2 62432 53.1617 354.5540 0001549 91.0580 269.0599 15.30199247 55393
Epoch: Dec 17, 2025 • Age: 11 hours

現在のステータス

高度 480.2 km
速度 7.63 km/s
衛星直下点 51.55°N, 51.41°E
打ち上げ日 Dec 29, 2024
運用期間 0.9 years
タイプ internet

技術仕様

分類 Payload
質量 730.00 kg
乾燥質量 700.00 kg
総質量 730.00 kg
長さ 0.30 m
直径 4.10 m
スパン 29.00 m
形状 Box + pan
製造者 SPXS
バスタイプ Starlink V2M
フェーズステータス In Orbit
所有者/国 SPXS/US

大規模コンステレーション

Loading constellations...